Location: Carrières
(48.9495°N, 2.0407°E)
Time: 20:46:48
(UTC+00:00)

Transit 2A - Pass Details

Date: 28 April 2024
Orbit: 594 x 957 km, 66.7° (Epoch: 18 May)

Event Time Altitude Azimuth Distance (km) Brightness Sun altitude
Rises 07:00:08 0° 276° (W) 2,955 8.4 22.3°
Reaches altitude 10° 07:03:14 10° 299° (WNW) 2,107 7.8 22.9°
Maximum altitude 07:06:08 16° 337° (NNW) 1,812 7.8 23.3°
Drops below altitude 10° 07:09:11 10° 14° (NNE) 2,245 8.6 23.8°
Sets 07:12:40 0° 36° (NE) 3,257 9.7 24.4°
